Time,TemperatureF,DewpointF,PressureIn,WindDirection,WindDirectionDegrees,WindSpeedMPH,WindSpeedGustMPH,Humidity,HourlyPrecipIn,Conditions,Clouds,dailyrainin,SoftwareType,DateUTC
2013-07-20 00:04:00,65.1,48.6,29.82,WSW,256,0.0,0.0,55,0.00,,,0.00,meteobridge,2013-07-20 07:04:00,
2013-07-20 00:19:00,64.6,48.9,29.82,WSW,256,0.0,0.0,57,0.00,,,0.00,meteobridge,2013-07-20 07:19:00,
2013-07-20 00:34:00,64.2,48.7,29.82,WSW,256,0.0,0.0,57,0.00,,,0.00,meteobridge,2013-07-20 07:34:00,
2013-07-20 00:49:00,63.7,48.6,29.83,WSW,256,0.0,0.0,58,0.00,,,0.00,meteobridge,2013-07-20 07:49:00,
2013-07-20 01:04:00,65.7,50.0,29.83,NE,53,0.0,0.9,57,0.00,,,0.00,meteobridge,2013-07-20 08:04:00,
2013-07-20 01:19:00,64.8,49.1,29.83,ESE,102,0.0,0.0,57,0.00,,,0.00,meteobridge,2013-07-20 08:19:00,
2013-07-20 01:35:00,62.4,48.7,29.82,ESE,102,0.0,0.0,61,0.00,,,0.00,meteobridge,2013-07-20 08:35:00,
2013-07-20 01:50:00,61.3,48.6,29.82,ESE,102,0.0,0.0,63,0.00,,,0.00,meteobridge,2013-07-20 08:50:00,
2013-07-20 02:05:00,61.2,48.0,29.82,ESE,102,0.0,0.0,62,0.00,,,0.00,meteobridge,2013-07-20 09:05:00,
2013-07-20 02:20:00,61.2,48.4,29.82,East,101,0.0,0.0,63,0.00,,,0.00,meteobridge,2013-07-20 09:20:00,
2013-07-20 02:35:00,60.1,49.1,29.83,ESE,102,0.0,0.0,67,0.00,,,0.00,meteobridge,2013-07-20 09:35:00,
2013-07-20 02:51:00,60.8,48.6,29.83,East,101,0.0,0.9,64,0.00,,,0.00,meteobridge,2013-07-20 09:51:00,
2013-07-20 03:06:00,60.1,47.5,29.82,East,101,0.0,0.0,63,0.00,,,0.00,meteobridge,2013-07-20 10:06:00,
2013-07-20 03:21:00,58.8,47.8,29.82,East,101,0.0,0.0,67,0.00,,,0.00,meteobridge,2013-07-20 10:21:00,
2013-07-20 03:36:00,58.3,48.2,29.82,East,101,0.0,0.0,69,0.00,,,0.00,meteobridge,2013-07-20 10:36:00,
2013-07-20 03:51:00,57.9,48.2,29.82,East,101,0.0,0.0,70,0.00,,,0.00,meteobridge,2013-07-20 10:51:00,
2013-07-20 04:06:00,57.2,47.8,29.82,East,101,0.0,0.0,71,0.00,,,0.00,meteobridge,2013-07-20 11:06:00,
2013-07-20 04:21:00,56.7,48.0,29.82,East,101,0.0,0.0,73,0.00,,,0.00,meteobridge,2013-07-20 11:21:00,
2013-07-20 04:37:00,56.1,47.7,29.82,East,101,0.0,0.0,73,0.00,,,0.00,meteobridge,2013-07-20 11:37:00,
2013-07-20 04:52:00,55.8,47.7,29.83,East,101,0.0,0.0,74,0.00,,,0.00,meteobridge,2013-07-20 11:52:00,
2013-07-20 05:07:00,56.1,47.7,29.83,East,101,0.0,0.0,73,0.00,,,0.00,meteobridge,2013-07-20 12:07:00,
2013-07-20 05:22:00,56.1,48.0,29.83,SW,223,0.0,0.0,74,0.00,,,0.00,meteobridge,2013-07-20 12:22:00,
2013-07-20 05:37:00,55.6,48.2,29.83,SW,223,0.0,0.0,76,0.00,,,0.00,meteobridge,2013-07-20 12:37:00,
2013-07-20 05:53:00,56.7,48.7,29.83,SW,222,0.0,0.0,75,0.00,,,0.00,meteobridge,2013-07-20 12:53:00,
2013-07-20 06:08:00,59.0,48.9,29.83,SW,222,0.0,0.0,69,0.00,,,0.00,meteobridge,2013-07-20 13:08:00,
2013-07-20 06:23:00,58.6,49.3,29.83,WSW,239,0.0,0.0,71,0.00,,,0.00,meteobridge,2013-07-20 13:23:00,
2013-07-20 06:38:00,58.8,48.7,29.83,WSW,239,0.0,0.0,69,0.00,,,0.00,meteobridge,2013-07-20 13:38:00,
2013-07-20 06:53:00,60.3,50.4,29.83,WSW,238,0.0,0.0,70,0.00,,,0.00,meteobridge,2013-07-20 13:53:00,
2013-07-20 07:09:00,62.8,52.5,29.83,ESE,110,0.9,0.9,69,0.00,,,0.00,meteobridge,2013-07-20 14:09:00,
2013-07-20 07:24:00,63.9,52.3,29.84,ESE,123,0.0,0.9,66,0.00,,,0.00,meteobridge,2013-07-20 14:24:00,
2013-07-20 07:39:00,66.7,53.8,29.84,ENE,60,0.0,2.9,63,0.00,,,0.00,meteobridge,2013-07-20 14:39:00,
2013-07-20 07:54:00,68.9,53.6,29.84,East,93,0.0,2.0,58,0.00,,,0.00,meteobridge,2013-07-20 14:54:00,
2013-07-20 08:09:00,70.2,53.8,29.83,ENE,61,0.9,2.0,56,0.00,,,0.00,meteobridge,2013-07-20 15:09:00,
2013-07-20 08:24:00,70.2,53.2,29.84,ENE,61,0.9,4.9,55,0.00,,,0.00,meteobridge,2013-07-20 15:24:00,
2013-07-20 08:39:00,72.1,52.5,29.83,NE,48,0.0,2.9,50,0.00,,,0.00,meteobridge,2013-07-20 15:39:00,
2013-07-20 08:54:00,74.5,52.9,29.83,ESE,103,0.9,2.0,47,0.00,,,0.00,meteobridge,2013-07-20 15:54:00,
2013-07-20 09:09:00,77.4,53.8,29.83,ENE,58,0.0,2.0,44,0.00,,,0.00,meteobridge,2013-07-20 16:09:00,
2013-07-20 09:24:00,79.2,53.4,29.82,East,82,0.0,0.0,41,0.00,,,0.00,meteobridge,2013-07-20 16:24:00,
2013-07-20 09:39:00,81.9,52.3,29.82,SE,136,0.0,0.0,36,0.00,,,0.00,meteobridge,2013-07-20 16:39:00,
2013-07-20 09:54:00,83.8,50.9,29.82,ESE,118,0.0,0.0,32,0.00,,,0.00,meteobridge,2013-07-20 16:54:00,
2013-07-20 10:10:00,85.1,51.1,29.82,SSE,150,0.0,0.0,31,0.00,,,0.00,meteobridge,2013-07-20 17:10:00,
2013-07-20 10:25:00,85.5,50.5,29.82,SE,139,0.0,0.9,30,0.00,,,0.00,meteobridge,2013-07-20 17:25:00,
2013-07-20 10:40:00,86.4,50.4,29.81,ESE,103,0.0,2.0,29,0.00,,,0.00,meteobridge,2013-07-20 17:40:00,
2013-07-20 10:55:00,86.7,49.6,29.81,SSW,203,0.0,0.9,28,0.00,,,0.00,meteobridge,2013-07-20 17:55:00,
2013-07-20 11:10:00,88.0,48.7,29.81,SE,139,0.0,0.9,26,0.00,,,0.00,meteobridge,2013-07-20 18:10:00,
2013-07-20 11:25:00,88.9,48.6,29.80,SW,216,2.0,2.9,25,0.00,,,0.00,meteobridge,2013-07-20 18:25:00,
2013-07-20 11:40:00,89.4,50.0,29.80,SE,132,0.0,0.9,26,0.00,,,0.00,meteobridge,2013-07-20 18:40:00,
2013-07-20 12:25:00,91.2,48.2,29.78,SW,229,0.0,0.0,23,0.00,,,0.00,meteobridge,2013-07-20 19:25:00,
2013-07-20 12:41:00,91.8,46.2,29.78,SSE,166,0.0,4.9,21,0.00,,,0.00,meteobridge,2013-07-20 19:41:00,
2013-07-20 12:56:00,92.1,48.9,29.78,SW,227,0.0,0.9,23,0.00,,,0.00,meteobridge,2013-07-20 19:56:00,
2013-07-20 13:11:00,92.5,46.9,29.78,SW,215,0.0,0.9,21,0.00,,,0.00,meteobridge,2013-07-20 20:11:00,
2013-07-20 13:26:00,91.8,43.7,29.77,NE,39,0.9,0.9,19,0.00,,,0.00,meteobridge,2013-07-20 20:26:00,
2013-07-20 13:41:00,92.7,45.7,29.77,SW,236,0.0,2.0,20,0.00,,,0.00,meteobridge,2013-07-20 20:41:00,
2013-07-20 13:56:00,92.1,43.9,29.76,SW,229,0.0,2.9,19,0.00,,,0.00,meteobridge,2013-07-20 20:56:00,
2013-07-20 14:11:00,93.0,44.6,29.76,SW,227,0.0,0.9,19,0.00,,,0.00,meteobridge,2013-07-20 21:11:00,
2013-07-20 14:26:00,93.4,45.0,29.75,SSE,158,0.0,0.9,19,0.00,,,0.00,meteobridge,2013-07-20 21:26:00,
2013-07-20 14:41:00,93.7,40.8,29.75,South,183,0.0,0.9,16,0.00,,,0.00,meteobridge,2013-07-20 21:41:00,
2013-07-20 14:56:00,92.8,38.5,29.74,SW,230,0.9,16.1,15,0.00,,,0.00,meteobridge,2013-07-20 21:56:00,
2013-07-20 15:11:00,93.7,37.4,29.74,SW,230,0.0,0.9,14,0.00,,,0.00,meteobridge,2013-07-20 22:11:00,
2013-07-20 15:26:00,94.5,37.9,29.73,West,272,0.9,4.0,14,0.00,,,0.00,meteobridge,2013-07-20 22:26:00,
2013-07-20 15:41:00,94.1,37.6,29.73,WSW,252,0.9,4.0,14,0.00,,,0.00,meteobridge,2013-07-20 22:41:00,
2013-07-20 15:56:00,93.7,37.4,29.72,SW,234,0.9,2.0,14,0.00,,,0.00,meteobridge,2013-07-20 22:56:00,
2013-07-20 16:12:00,94.5,36.0,29.72,SW,223,0.0,6.0,13,0.00,,,0.00,meteobridge,2013-07-20 23:12:00,
2013-07-20 16:27:00,93.9,35.6,29.71,West,263,0.0,2.0,13,0.00,,,0.00,meteobridge,2013-07-20 23:27:00,
2013-07-20 16:42:00,94.1,33.8,29.71,West,268,0.9,2.0,12,0.00,,,0.00,meteobridge,2013-07-20 23:42:00,
2013-07-20 16:57:00,93.9,31.5,29.70,West,281,0.0,2.9,11,0.00,,,0.00,meteobridge,2013-07-20 23:57:00,
2013-07-20 17:12:00,93.7,28.9,29.70,WSW,238,0.9,2.0,10,0.00,,,0.00,meteobridge,2013-07-21 00:12:00,
2013-07-20 17:27:00,93.6,31.1,29.70,WSW,247,0.0,0.9,11,0.00,,,0.00,meteobridge,2013-07-21 00:27:00,
2013-07-20 17:42:00,92.8,28.2,29.69,NW,317,0.9,8.1,10,0.00,,,0.00,meteobridge,2013-07-21 00:42:00,
2013-07-20 17:57:00,93.0,30.7,29.69,WSW,242,0.9,2.0,11,0.00,,,0.00,meteobridge,2013-07-21 00:57:00,
2013-07-20 18:12:00,93.6,28.8,29.69,WNW,296,0.0,2.0,10,0.00,,,0.00,meteobridge,2013-07-21 01:12:00,
2013-07-20 18:27:00,93.4,28.8,29.68,SE,134,0.0,6.9,10,0.00,,,0.00,meteobridge,2013-07-21 01:27:00,
2013-07-20 18:42:00,91.9,27.7,29.68,WSW,241,0.0,0.0,10,0.00,,,0.00,meteobridge,2013-07-21 01:42:00,
2013-07-20 18:57:00,90.7,24.1,29.68,WSW,251,0.9,2.9,9,0.00,,,0.00,meteobridge,2013-07-21 01:57:00,
2013-07-20 19:12:00,89.6,25.9,29.68,West,265,0.0,0.9,10,0.00,,,0.00,meteobridge,2013-07-21 02:12:00,
2013-07-20 19:27:00,88.7,27.5,29.68,SW,235,0.0,0.0,11,0.00,,,0.00,meteobridge,2013-07-21 02:27:00,
2013-07-20 19:43:00,87.1,30.2,29.68,SW,231,0.0,0.0,13,0.00,,,0.00,meteobridge,2013-07-21 02:43:00,
2013-07-20 19:58:00,85.3,28.9,29.68,WSW,238,0.0,0.0,13,0.00,,,0.00,meteobridge,2013-07-21 02:58:00,
2013-07-20 20:14:00,82.8,30.4,29.68,WSW,238,0.0,0.0,15,0.00,,,0.00,meteobridge,2013-07-21 03:14:00,
2013-07-20 20:29:00,80.4,31.6,29.68,NNW,327,0.0,0.0,17,0.00,,,0.00,meteobridge,2013-07-21 03:29:00,
2013-07-20 20:44:00,78.6,31.6,29.68,East,96,0.0,0.0,18,0.00,,,0.00,meteobridge,2013-07-21 03:44:00,
2013-07-20 20:59:00,77.0,31.6,29.68,East,96,0.0,0.0,19,0.00,,,0.00,meteobridge,2013-07-21 03:59:00,
2013-07-20 21:14:00,75.9,34.3,29.69,East,96,0.0,0.0,22,0.00,,,0.00,meteobridge,2013-07-21 04:14:00,
2013-07-20 21:29:00,74.7,30.9,29.69,East,96,0.0,0.0,20,0.00,,,0.00,meteobridge,2013-07-21 04:29:00,
2013-07-20 21:45:00,73.9,31.5,29.69,East,96,0.0,0.0,21,0.00,,,0.00,meteobridge,2013-07-21 04:45:00,
2013-07-20 22:00:00,73.2,33.3,29.68,East,96,0.0,0.0,23,0.00,,,0.00,meteobridge,2013-07-21 05:00:00,
2013-07-20 22:16:00,72.7,31.6,29.68,East,96,0.0,0.9,22,0.00,,,0.00,meteobridge,2013-07-21 05:16:00,
2013-07-20 22:31:00,72.7,30.6,29.68,ENE,72,0.9,0.9,21,0.00,,,0.00,meteobridge,2013-07-21 05:31:00,
2013-07-20 22:46:00,72.3,30.2,29.68,ENE,72,0.0,0.0,21,0.00,,,0.00,meteobridge,2013-07-21 05:46:00,
2013-07-20 23:01:00,72.0,29.8,29.68,ENE,72,0.0,0.0,21,0.00,,,0.00,meteobridge,2013-07-21 06:01:00,
2013-07-20 23:16:00,71.8,29.7,29.68,ENE,72,0.0,0.9,21,0.00,,,0.00,meteobridge,2013-07-21 06:16:00,
2013-07-20 23:31:00,71.1,29.1,29.68,ENE,72,0.0,0.0,21,0.00,,,0.00,meteobridge,2013-07-21 06:31:00,
2013-07-20 23:46:00,70.2,31.6,29.68,East,82,0.0,0.0,24,0.00,,,0.00,meteobridge,2013-07-21 06:46:00,